Location: Salamanca
(40.9670°N, 5.6500°W)
Time: 16:49:49
(UTC+01:00)

ISS - Visible Passes

Search period start: 10 December 2018 00:00
Search period end: 20 December 2018 00:00
Orbit: 401 x 408 km, 51.6° (Epoch: 10 December)

Date Brightness Start Highest point End Pass type
(mag) Time Alt. Az. Time Alt. Az. Time Alt. Az.
10 Dec -3.3 19:04:38 10° NW 19:07:45 40° NNE 19:09:01 27° E visible
10 Dec -0.4 20:41:26 10° W 20:41:43 12° W 20:41:43 12° W visible
11 Dec -2.9 19:48:54 10° WNW 19:52:02 45° SW 19:52:27 42° SSW visible
12 Dec -3.9 18:56:38 10° NW 18:59:54 90° N 19:03:09 10° SE visible
13 Dec -1.0 19:41:34 10° W 19:43:55 19° SW 19:46:15 10° S visible
14 Dec -2.1 18:48:51 10° WNW 18:51:52 35° SW 18:54:52 10° SSE visible
16 Dec -0.5 18:41:42 10° W 18:43:38 15° SW 18:45:33 10° SSW visible
